USA763 UZTT-UZSR

Flight info

Callsign USA763
Flight time N/A
Altitude 16000
Route KUFIM2A KUFIM DCT NETAT DCT TITAR DCT RONVU/K0509F170 DCT USETU DCT ARPIZ DCT LAVMI DCT FIZLE FIZLE2Y
Aircraft AT76/M-SDFGIRY/S

Departure

Time 2026-04-23 10:48
Airport Tashkent International Airport (UZTT)

Arrival

Time N/A
Airport UZSR
Time Latitude Longitude Altitude Speed Heading
2026-04-23 10:40 41.25228 69.26603 1422 ft 0 kts 180°
2026-04-23 10:43 41.25222 69.26603 1422 ft 2 kts 180°
2026-04-23 10:43 41.25203 69.26600 1422 ft 3 kts 200°
2026-04-23 10:43 41.25192 69.26569 1422 ft 4 kts 265°
2026-04-23 10:43 41.25191 69.26515 1422 ft 6 kts 270°
2026-04-23 10:44 41.25200 69.26457 1422 ft 6 kts 275°
2026-04-23 10:44 41.25200 69.26397 1422 ft 6 kts 270°
2026-04-23 10:44 41.25200 69.26334 1422 ft 7 kts 269°
2026-04-23 10:44 41.25202 69.26269 1422 ft 6 kts 281°
2026-04-23 10:45 41.25246 69.26241 1422 ft 9 kts 342°
2026-04-23 10:45 41.25280 69.26163 1422 ft 10 kts 291°
2026-04-23 10:45 41.25309 69.26076 1422 ft 10 kts 306°
2026-04-23 10:45 41.25378 69.26047 1422 ft 11 kts 20°
2026-04-23 10:46 41.25433 69.26116 1422 ft 10 kts 72°
2026-04-23 10:46 41.25434 69.26124 1422 ft 0 kts 78°
2026-04-23 10:47 41.25456 69.26318 1422 ft 63 kts 83°
2026-04-23 10:47 41.25558 69.27233 1447 ft 129 kts 83°
2026-04-23 10:48 41.25709 69.28499 1748 ft 148 kts 86°
2026-04-23 10:48 41.25816 69.29848 2305 ft 146 kts 86°
2026-04-23 10:48 41.26157 69.31213 2731 ft 154 kts 75°
2026-04-23 10:49 41.26820 69.36891 4157 ft 187 kts 81°
2026-04-23 10:49 41.27028 69.38594 4584 ft 185 kts 84°
2026-04-23 10:50 41.27210 69.40313 5022 ft 185 kts 84°
2026-04-23 10:50 41.27393 69.42066 5398 ft 188 kts 83°
2026-04-23 10:50 41.27578 69.43788 5807 ft 188 kts 84°
2026-04-23 10:50 41.27763 69.45534 6202 ft 189 kts 84°
2026-04-23 10:51 41.27950 69.47279 6586 ft 191 kts 84°
2026-04-23 10:51 41.28136 69.49013 7009 ft 189 kts 84°
2026-04-23 10:51 41.28317 69.50744 7368 ft 192 kts 84°
2026-04-23 10:51 41.28411 69.52542 7682 ft 194 kts 101°
2026-04-23 10:52 41.27672 69.54009 7902 ft 191 kts 147°
2026-04-23 10:52 41.26451 69.54565 8324 ft 181 kts 169°
2026-04-23 10:52 41.25692 69.54758 8646 ft 176 kts 172°